Location: Bohy
(49.9380°N, 13.5753°E)
Time: 00:24:17
(UTC+00:00)

Meteor 2-10 Rocket - Pass Details

Date: 19 May 2025
Orbit: 733 x 881 km, 81.2° (Epoch: 15 June)

Event Time Altitude Azimuth Distance (km) Brightness Sun altitude
Rises 23:00:11 0° 349° (N) 3,439 8.4 -20.1°
Reaches altitude 10° 23:02:38 10° 353° (N) 2,514 7.4 -20.1°
Maximum altitude 23:08:21 65° 75° (ENE) 964 4.0 -20.1°
Enters shadow 23:11:10 31° 147° (SSE) 1,503 4.6 -20.0°
